User: anonymous   Login
Location: Nairn
(57.5833°N, 3.8667°W)
Time: 01:07:00
(UTC+00:00)
Language:

Cosmos 1758 Rocket - Orbit

View from above orbital plane
View from above orbital plane
View from above satellite
View from above satellite

Ground track
Ground track

The orbit data is extracted from the following two-line orbital elements,

1 16792U 86046B   20293.14186007  .00000074  00000-0  61292-5 0  9998
2 16792  82.4804 134.3827 0022952 233.9361 265.9040 14.83254130855711
Epoch (UTC): 19 October 2020 03:24:16
Eccentricity: 0.0022952
inclination: 82.4804°
perigee height: 603 km
apogee height: 635 km
right ascension of ascending node: 134.3827°
argument of perigee: 233.9361°
revolutions per day: 14.83254130
mean anomaly at epoch: 265.9040°
orbit number at epoch: 85571

The dashed part of the orbit path shows where the satellite is in the earth's shadow,  

DLR